Showing default

IRIDIUM 131, 43079

Orbit data source: Space-Track

IRIDIUM 131, 43079 is a payload satellite owned by Iridium (US) in LEO that was launched on Sat, 23 Dec 2017 UTC via an FALCON 9 launch vehicle from the Air Force Western Test Range (AFWTR). Payloads include a variety of satellites, spacecraft, and rockets equipped with specific instruments for various scientific and technological missions. These include communications satellites like Starlink; space stations such as the ISS; scientific satellites like the Hubble; Earth observation satellites from companies like Planet Labs, Umbra, and HawkEye 360; GPS; miniature CubeSats for education and research; and military/defense satellites.

Loading next visibility...
IRIDIUM 131 details
Identifier
43079, 2017-083K
Orbit
LEO
Last TLE update12 hours ago
Origin
Flag of USIridium (US)
ManufacturerOATK SSG Gilbert
MissionOperational Commercial Communications
Bus & MotorELITEBUS, Unknown motor
Mass860 kg wet, 700 kg dry
Launch date (UTC)
2017-12-23 (7 years ago)
Launch vehicle
FALCON 9
Launch site
Air Force Western Test Range (AFWTR)
Object type
Payload
Rocket body
Debris
Shape & HBRTrap Box + 2 Pan, 9.4 m
Radar Cross Section14.423 m², Large (>1 m²)

Expand to show TLE details & history

TLE from 12 hours ago
0 IRIDIUM 131
1 43079U 17083K   24361.06503039  .00000125  00000-0  37545-4 0  9990
2 43079  86.3991 187.0420 0002127  86.1657 273.9782 14.34217762366974
Epoch: 2024-12-26T01:33Z
Definitive object data (Epoch: 2024-12-26T01:33:38.625Z)
Latitude-0.00003°
Longitude68.58128°
Altitude780.613 km
Speed7.464 km/s
True Right ascension12h 28m 10s
True Declination0° 00' 00"
Sunlit
Object was in daylight at TLE epoch
Visualization TLE readout
Latitude-43.94879°
Longitude64.92149°
Altitude795.63 km
Speed7.454 km/s
Apparent Right ascension09h 17m 12s
Apparent Declination-87° 31' 04"
Sunlit
Object is in daylight
Visualization observer readout
Local Sidereal Time12:26:16
Azimuth182.32° SSW
Elevation-38.208°
Doppler factor1
Orbital elements
Apogee altitude776.153 km
Perigee altitude773.11 km
Semi-major axis7,152.769 km
Eccentricity0.0002127
Inclination86.3991°
RAAN187.042°
Arg. of periapsis86.1657°
True anomaly273.95388°
Mean anomaly273.9782°
Eccentric anomaly273.96604°
Mean motion3.58783 °/min
BSTAR0.000037545
Orbital period100.34 mins
Loading maneuver chart data...
Loading historical data...
Loading historical data...
Loading historical data...
Loading historical data...
Loading historical data...
Loading historical data...
Loading historical data...

IRIDIUM 131 Visibility forecast

Observer location: undefined°, undefined

Span
Click to sort rows by Start time (UTC) header in descending order
Start Az.
Max El. time (UTC)
Max El. Az.
Max El.
End time (UTC)
End Az.
9 mins2024-12-26 13:23:39.220Z189.64° SSW2024-12-26 13:27:39.220Z236.664° WSW42.882°2024-12-26 13:32:39.220Z357.398° N
7 mins2024-12-26 23:55:39.220Z34.201° NE2024-12-26 23:58:39.220Z84.195° E25.321°2024-12-27 00:02:39.220Z137.407° SSE
7 mins2024-12-27 01:35:39.220Z329.309° NNW2024-12-27 01:38:39.220Z285.872° WNW26.722°2024-12-27 01:42:39.220Z222.032° SW
9 mins2024-12-27 12:50:39.220Z164.939° S2024-12-27 12:54:39.220Z83.776° E41.176°2024-12-27 12:59:39.220Z9.874° NNE
|